Kosmos-505

operational
NORAD ID: 6118 Int'l Des: 1972-057 Owner: OKB10 Country: SU
LEOCIRCULAR

About Kosmos-505

Description loading...

Live Position

Loading 3D Globe...

Upcoming Passes

Altitude History

Altitude vs Time

uPlot chart will show altitude changes over time

Two-Line Element Set

1 6118U 72057B 26022.49857911 -.00000013 00000-0 15443-4 0 9999
2 6118 74.0265 50.3609 0091590 68.0389 82.4030 12.59818199460722
Epoch: Jan 22, 2026 • Age: 17 hours

Current Status

Altitude 1424.6 km
Velocity 7.15 km/s
Sub-Earth Point 22.65°N, 22.86°E
Type other

Large Constellations

Loading constellations...